Regional Weather Roundup
Issued by NWS

Home | Current Version | Previous Version | Graphics & Text | Print | Product List | Glossary On
Versions: 1 2 3 4 5 6 7 8 9 10 11 12 13 14 15 16 17 18 19 20 21 22 23 24 25 26 27 28 29 30 31 32 33 34 35 36 37 38 39 40 41 42 43 44 45 46 47 48 49 50
000
ASUS43 KFSD 300802
RWRSD

WEATHER ROUNDUP FOR SOUTH DAKOTA
NATIONAL WEATHER SERVICE SIOUX FALLS SD
300 AM CDT SAT JUL 30 2016

NOTE: "FAIR" INDICATES FEW OR NO CLOUDS BELOW 12,000 FEET WITH NO
SIGNIFICANT WEATHER AND/OR OBSTRUCTIONS TO VISIBILITY.


SDZ001>005-009-010-012>017-300900-
NORTHWEST AND NORTH CENTRAL SOUTH DAKOTA

CITY           SKY/WX    TMP DP  RH WIND       PRES   REMARKS
BUFFALO          N/A     66  56  70 SW3       29.90F
FAITH            N/A     63  59  87 SE14      29.96F
MOBRIDGE       PTCLDY    68  57  68 S10       29.95S
$$

SDZ012>016-024>037-041>051-057-063-072>074-300900-
SOUTHWEST AND SOUTH CENTRAL SOUTH DAKOTA

CITY           SKY/WX    TMP DP  RH WIND       PRES   REMARKS
RAPID CTY ARPT CLEAR     57  54  89 CALM      29.98F
PIERRE         MOCLDY    66  55  67 SE14      29.97R
CUSTER         CLEAR     54  50  86 NW5       30.13F
ELLSWORTH AFB  CLEAR     63  57  79 SW2       29.98S
PHILIP         CLEAR     65  63  93 E6        29.96F
PINE RIDGE     CLEAR     55  54  96 NE3       30.02S
WINNER         CLOUDY    68  58  70 S13       30.02R
$$

SDZ004>011-016>023-039-040-300900-
NORTHEAST SOUTH DAKOTA

CITY           SKY/WX    TMP DP  RH WIND       PRES   REMARKS
ABERDEEN       CLOUDY    65  59  81 S7        29.99F
WATERTOWN      MOCLDY    62  55  77 S7        30.03F
BROOKINGS      PTCLDY    59  56  89 SE8       30.05R
SISSETON         N/A     65  59  81 SW8       29.99F
$$

SDZ017-020-022-023-036>040-048>070-300900-
SOUTHEAST SOUTH DAKOTA

CITY           SKY/WX    TMP DP  RH WIND       PRES   REMARKS
SIOUX FALLS    CLEAR     58  55  90 CALM      30.05S
HURON          CLEAR     63  55  75 S12       30.01S
CHAMBERLAIN    CLEAR     62  57  86 SE6       30.00F
MITCHELL       CLEAR     63  57  81 SE9       30.03S
YANKTON        CLEAR     61  57  88 E6        30.03S
$$

ABBREVIATIONS USED IN REMARKS
   TC - TEMPERATURE IN CELSIUS
  WCI - WIND CHILL INDEX
   HX - HEAT INDEX
  VSB - VISIBILITY




USA.gov is the U.S. government's official web portal to all federal, state and local government web resources and services.